Wind_Speed
5 4 4 4 4 3 3 3 2 2 2 3 3 3 3 3 3 3 4 5 5 6 7 7 8 8 9 10 11 11 12 12 12 13 12 13 13 13 13 13 13 13 14
5 4 4 4 4 4 4 4 4 3 2 3 3 3 4 4 4 5 5 6 6 7 7 8 8 9 10 11 12 12 13 13 14 14 14 14 14 15 15 14 14 14 14
6 5 4 3 3 3 3 4 4 4 3 2 3 3 4 5 5 6 6 6 7 8 8 9 10 10 11 11 12 13 13 14 14 14 15 15 15 15 16 16 16 15 16
6 5 4 4 3 3 3 4 4 4 4 4 4 4 5 6 6 6 6 7 8 9 9 9 10 11 11 11 12 13 13 14 14 14 15 15 15 15 16 16 16 16 16
6 5 4 4 4 4 4 4 5 5 4 5 5 5 6 6 7 7 7 7 8 9 10 10 11 11 12 12 12 13 13 13 14 15 15 16 16 15 16 17 17 18 18
6 5 4 4 5 5 4 4 5 5 4 5 5 6 6 7 7 8 8 8 8 9 10 11 11 12 12 12 13 13 14 14 14 14 15 16 15 15 16 18 18 19 19
7 6 6 5 5 5 5 5 5 5 5 5 6 6 7 7 8 8 8 9 9 10 10 11 12 12 12 13 13 13 13 13 14 14 14 14 15 15 16 17 18 18 19
6 6 6 5 5 5 5 5 5 5 6 6 6 7 7 9 9 9 9 10 10 11 11 11 11 12 13 13 13 12 13 13 14 14 14 14 14 14 14 15 16 17 17
5 5 5 6 6 6 6 6 6 6 7 7 7 8 8 8 9 10 11 10 11 11 12 12 12 12 13 13 14 13 13 14 14 14 15 15 15 15 14 15 16 17 17
6 6 6 7 7 7 7 7 7 7 7 8 8 8 9 9 9 9 10 11 11 12 12 12 12 13 13 13 14 14 14 14 14 15 15 15 15 15 16 16 16 16 17
6 7 7 7 8 8 8 8 7 8 8 8 9 9 9 9 9 9 10 11 12 12 13 13 13 14 14 14 14 15 15 15 15 15 15 15 16 16 16 16 17 17 17
7 7 8 8 8 8 9 9 9 9 10 10 9 9 10 10 10 10 10 11 12 13 13 14 14 14 14 15 15 15 15 15 15 15 15 16 16 16 17 17 17 17 17
8 8 8 8 9 9 10 10 10 10 10 10 11 11 11 11 11 12 12 12 13 14 14 14 14 15 15 15 15 15 16 16 15 15 15 16 17 17 17 17 17 17 18
9 8 8 9 9 10 10 10 10 11 11 12 12 12 12 12 12 13 14 14 14 15 15 15 15 15 16 16 15 16 16 16 16 16 16 16 17 17 17 17 18 18 18
10 9 10 10 10 10 10 10 11 12 12 12 13 13 13 14 14 14 15 15 15 16 16 16 16 16 16 16 16 16 16 16 17 17 17 17 17 17 17 17 18 18 19
10 11 11 11 11 11 11 12 12 12 13 13 14 14 15 15 15 15 16 16 17 17 17 17 16 16 16 15 16 17 17 18 18 18 18 19 18 18 18 19 18 19 19
11 12 12 12 13 13 12 13 13 13 14 15 15 15 15 16 16 16 17 17 17 18 18 18 17 17 17 17 17 18 18 19 19 19 19 19 19 19 19 19 19 19 20
12 13 13 13 14 14 14 14 15 15 15 16 15 15 16 16 16 17 18 18 19 19 19 19 19 19 19 19 18 18 19 20 20 20 20 20 20 19 20 20 20 21 21
13 14 14 14 14 15 15 15 16 16 17 17 17 16 16 17 17 18 19 20 20 20 20 20 20 20 20 20 20 20 21 21 21 21 21 21 21 21 21 21 22 22 22
14 15 15 15 15 16 16 17 17 18 18 19 18 18 18 18 18 19 20 20 21 21 21 21 21 21 21 21 21 21 21 22 22 22 21 21 21 21 21 22 22 23 23
15 16 16 16 16 17 17 18 19 19 18 18 19 19 19 19 20 21 21 22 22 22 22 22 23 22 22 23 23 23 23 23 23 23 22 22 22 23 23 23 23 23 23
16 17 17 18 18 18 19 20 20 20 19 19 19 20 21 21 21 22 22 23 23 23 23 23 23 23 23 24 24 24 24 24 24 23 22 22 23 23 23 23 23 23 23
18 18 18 19 20 20 20 21 21 22 21 21 21 22 22 22 22 23 24 24 24 24 25 25 25 25 25 26 26 26 25 24 24 23 23 23 24 23 23 23 23 24 23
19 20 21 22 22 22 22 22 23 23 23 23 23 23 23 23 23 24 25 25 25 26 26 27 27 27 27 28 27 27 27 26 25 25 24 24 24 23 24 24 25 25 25
21 22 23 23 24 24 24 24 24 24 24 24 24 25 25 25 25 25 26 26 26 27 28 28 29 29 29 29 29 28 27 27 26 26 26 26 26 26 25 25 26 26 27
23 23 24 24 24 24 24 25 25 25 25 26 26 27 27 27 27 27 28 28 28 29 29 29 29 30 29 29 30 30 29 28 27 27 27 27 27 28 27 26 27 27 27
Wind_Direction
65 65 67 64 53 50 47 34 11 350 337 326 311 306 304 294 294 292 299 299 290 289 287 283 278 274 274 274 274 276 277 278 277 275 274 275 275 273 272 271 267 266 266
52 52 52 50 46 39 30 22 17 12 351 336 331 319 309 305 304 302 298 298 293 289 287 286 285 281 279 280 279 278 278 277 279 279 276 276 277 276 275 270 269 270 267
48 46 47 43 36 24 22 20 15 11 2 345 335 318 311 309 307 304 303 294 291 292 291 289 287 284 282 282 282 282 281 280 280 279 278 278 276 275 273 271 269 269 269
41 38 37 33 21 16 13 8 1 358 2 357 347 331 318 310 308 306 300 299 299 298 294 292 290 289 286 285 286 286 284 282 283 282 282 281 278 275 274 271 267 267 268
32 31 33 23 17 10 1 355 353 353 348 341 336 332 327 319 314 312 305 303 303 303 299 295 292 291 291 290 291 289 285 284 284 282 282 283 280 278 277 271 268 268 268
31 28 24 15 10 4 357 350 347 346 339 333 330 327 321 321 318 316 313 309 306 304 303 301 298 296 295 297 295 294 288 286 287 285 284 284 282 280 278 273 271 269 268
31 27 26 19 12 3 355 350 345 343 339 334 334 334 325 319 320 319 320 317 312 309 306 303 302 299 297 298 298 295 292 292 291 290 289 289 286 281 279 276 275 272 268
30 26 21 13 6 357 352 344 337 334 330 327 324 322 320 320 320 317 314 313 312 312 308 305 304 300 297 297 298 296 294 294 294 293 292 292 289 289 287 284 283 277 274
20 15 10 1 355 350 346 341 337 331 326 324 320 317 315 315 318 316 314 314 313 311 308 304 304 299 296 295 296 296 294 293 293 293 295 295 292 292 290 287 287 284 281
10 2 359 354 347 338 336 336 334 333 332 327 322 318 315 314 314 315 314 314 313 312 310 309 309 306 300 297 297 296 294 294 293 293 295 293 293 293 292 289 288 287 285
355 352 350 343 341 336 331 331 329 330 330 331 328 324 321 318 316 316 317 317 315 314 314 313 310 309 300 297 297 297 297 296 294 293 293 291 292 292 291 290 289 288 286
343 341 341 340 339 337 333 329 327 325 325 328 327 324 322 320 317 315 316 317 318 317 315 313 311 309 304 300 298 298 298 296 295 294 292 290 290 292 292 290 289 287 285
335 335 336 336 335 333 331 327 324 324 322 324 327 325 321 319 316 314 315 316 317 317 316 315 315 311 307 303 299 296 295 294 295 297 296 293 292 292 291 290 289 287 284
331 332 330 327 326 327 327 325 324 323 319 319 322 323 321 318 316 314 314 315 316 314 314 314 314 311 307 303 299 297 296 296 295 295 296 295 294 292 290 288 287 288 285
334 337 335 330 329 328 323 321 321 322 320 318 319 319 318 316 315 313 311 313 315 315 313 311 309 310 309 302 299 299 299 299 297 295 294 296 296 295 294 292 291 289 287
332 331 330 328 327 324 323 322 320 318 316 315 315 315 314 313 313 311 310 310 311 312 312 309 308 310 311 307 303 302 300 297 296 296 296 295 295 294 293 292 291 291 289
322 326 324 324 323 321 318 317 318 315 314 313 313 313 312 311 310 309 308 308 308 309 310 308 306 306 307 307 306 306 301 298 296 295 294 293 293 295 293 291 290 290 291
314 314 316 316 317 318 317 316 314 314 311 311 311 311 310 310 308 307 306 307 307 308 308 307 305 304 303 303 304 304 304 302 300 298 295 293 292 292 290 289 289 290 291
311 310 311 313 314 314 314 312 311 310 309 307 307 309 310 310 307 305 305 305 307 308 309 309 308 306 305 304 304 305 304 303 300 299 297 295 292 290 289 289 288 288 288
309 307 307 309 311 311 309 308 308 308 305 304 305 305 306 305 305 304 304 304 304 305 306 307 307 306 305 305 305 306 306 304 302 301 298 296 294 292 290 290 289 288 287
305 304 303 306 306 307 306 306 306 307 306 304 303 302 303 301 302 303 303 303 302 303 304 305 306 306 306 306 304 304 304 305 305 303 299 296 295 293 291 291 290 289 288
303 303 301 300 301 302 304 304 304 303 301 302 304 304 302 301 301 301 301 301 302 302 303 305 305 305 305 305 304 302 302 302 302 301 298 297 297 295 294 292 290 288 287
300 301 299 298 299 300 301 302 301 302 302 302 303 303 302 302 301 301 301 301 301 301 302 303 304 303 303 304 304 305 303 303 303 303 299 297 297 297 296 294 292 293 292
299 300 299 298 298 300 299 299 299 300 300 301 301 302 301 301 303 302 301 301 302 302 302 302 302 301 300 301 301 303 302 301 302 303 302 299 297 296 296 295 294 294 292
297 298 299 298 298 300 300 299 297 298 299 300 300 300 300 300 301 300 300 300 301 301 301 300 299 299 299 300 301 300 300 299 299 300 300 299 298 298 296 293 291 291 290
297 299 299 299 299 299 300 301 301 299 298 299 299 299 299 299 300 299 298 298 299 300 299 298 297 299 300 300 301 299 298 298 298 298 299 300 299 298 295 292 290 290 290
Height
5885 5885 5885 5885 5885 5885 5885 5885 5884 5884 5884 5884 5884 5884 5884 5884 5884 5884 5884 5883 5883 5883 5882 5882 5882 5881 5881 5881 5881 5880 5880 5880 5879 5878 5878 5878 5877 5878 5878 5877 5877 5877 5878
5886 5886 5886 5885 5885 5885 5885 5885 5884 5884 5884 5884 5883 5883 5883 5883 5883 5883 5883 5882 5882 5882 5881 5881 5880 5880 5879 5879 5878 5878 5877 5877 5876 5875 5875 5875 5874 5874 5874 5874 5874 5874 5874
5887 5887 5886 5886 5886 5886 5885 5885 5885 5884 5884 5883 5883 5883 5883 5882 5882 5882 5881 5881 5880 5880 5879 5879 5878 5877 5877 5876 5876 5875 5874 5874 5873 5872 5872 5871 5871 5870 5870 5870 5871 5871 5871
5888 5887 5887 5886 5886 5886 5886 5885 5885 5884 5884 5883 5883 5882 5882 5881 5881 5880 5880 5879 5879 5878 5877 5877 5876 5875 5874 5874 5873 5872 5871 5870 5869 5869 5868 5867 5867 5866 5866 5866 5867 5867 5867
5888 5888 5887 5887 5886 5886 5886 5885 5885 5884 5883 5883 5882 5882 5881 5880 5880 5879 5878 5878 5877 5876 5876 5875 5874 5873 5872 5871 5870 5869 5868 5867 5866 5865 5865 5864 5863 5862 5862 5862 5863 5863 5863
5889 5889 5888 5887 5887 5886 5886 5885 5885 5884 5883 5882 5882 5881 5880 5879 5878 5878 5877 5876 5875 5874 5873 5872 5871 5870 5869 5868 5867 5866 5865 5863 5862 5861 5861 5860 5859 5858 5858 5858 5858 5858 5859
5890 5889 5889 5888 5887 5887 5886 5885 5884 5883 5883 5882 5881 5880 5879 5878 5877 5876 5875 5874 5873 5872 5871 5870 5869 5867 5866 5865 5864 5863 5861 5860 5859 5858 5857 5856 5855 5855 5854 5853 5854 5854 5854
5891 5890 5889 5889 5888 5887 5886 5885 5884 5883 5882 5881 5880 5879 5878 5877 5876 5875 5873 5872 5871 5870 5869 5868 5866 5865 5864 5862 5861 5860 5858 5857 5856 5855 5853 5853 5852 5851 5850 5850 5849 5849 5849
5891 5890 5889 5888 5888 5887 5885 5884 5883 5882 5881 5880 5879 5878 5877 5876 5874 5873 5872 5870 5869 5868 5867 5865 5864 5862 5861 5859 5858 5857 5856 5854 5853 5852 5851 5849 5848 5847 5847 5846 5845 5845 5844
5891 5890 5889 5888 5887 5886 5885 5884 5883 5881 5880 5878 5877 5876 5875 5874 5873 5872 5870 5868 5867 5865 5864 5862 5861 5859 5858 5856 5855 5854 5853 5851 5850 5848 5847 5846 5845 5844 5843 5842 5842 5841 5841
5891 5890 5889 5887 5886 5885 5884 5883 5882 5880 5879 5877 5876 5874 5873 5872 5871 5870 5869 5867 5865 5863 5861 5860 5858 5856 5855 5853 5852 5851 5849 5848 5847 5845 5844 5843 5842 5841 5840 5838 5837 5837 5836
5891 5889 5888 5886 5885 5884 5882 5881 5880 5879 5878 5876 5875 5873 5872 5870 5869 5868 5866 5865 5863 5861 5858 5857 5855 5853 5851 5850 5848 5847 5846 5844 5843 5842 5840 5839 5838 5837 5835 5834 5833 5832 5832
5890 5888 5887 5885 5884 5882 5881 5880 5878 5877 5876 5874 5873 5871 5869 5868 5866 5865 5864 5862 5861 5859 5856 5854 5851 5849 5848 5846 5845 5843 5842 5840 5839 5838 5836 5835 5834 5832 5831 5830 5829 5828 5827
5888 5887 5885 5884 5882 5881 5879 5878 5876 5875 5874 5872 5870 5869 5867 5865 5864 5862 5861 5859 5858 5856 5854 5851 5849 5846 5845 5843 5841 5839 5838 5836 5835 5834 5832 5831 5829 5828 5827 5825 5824 5823 5823
5887 5885 5884 5882 5881 5879 5878 5876 5875 5873 5871 5870 5868 5866 5865 5863 5861 5859 5858 5856 5854 5852 5851 5848 5846 5843 5841 5839 5837 5836 5834 5832 5831 5830 5828 5827 5825 5824 5822 5821 5819 5818 5817
5885 5883 5882 5880 5879 5877 5875 5874 5872 5870 5869 5867 5865 5863 5862 5860 5858 5856 5854 5852 5850 5848 5846 5844 5842 5840 5837 5835 5834 5832 5830 5829 5827 5825 5823 5822 5820 5819 5818 5816 5815 5814 5812
5883 5882 5880 5878 5877 5875 5873 5872 5870 5868 5866 5864 5862 5860 5858 5857 5855 5853 5851 5848 5846 5844 5842 5840 5838 5836 5834 5832 5829 5827 5826 5824 5822 5820 5818 5816 5815 5814 5812 5811 5810 5808 5807
5880 5879 5877 5876 5874 5872 5870 5869 5867 5865 5862 5860 5858 5856 5854 5853 5851 5849 5847 5845 5842 5840 5838 5836 5834 5832 5830 5827 5825 5823 5821 5819 5817 5815 5813 5811 5809 5808 5807 5805 5804 5803 5801
5878 5876 5875 5873 5871 5869 5867 5865 5863 5861 5859 5856 5855 5852 5850 5848 5847 5844 5842 5840 5838 5836 5833 5831 5829 5827 5825 5822 5820 5818 5816 5814 5811 5809 5807 5805 5804 5802 5800 5799 5798 5796 5795
5875 5873 5872 5870 5868 5866 5864 5862 5859 5857 5855 5852 5850 5848 5846 5844 5842 5840 5838 5835 5833 5831 5828 5826 5824 5822 5820 5817 5815 5813 5811 5808 5806 5804 5801 5799 5798 5796 5794 5793 5791 5790 5788
5871 5869 5868 5866 5864 5862 5860 5857 5855 5853 5850 5848 5846 5844 5841 5839 5837 5835 5833 5830 5828 5825 5823 5821 5818 5816 5814 5812 5810 5807 5805 5802 5800 5797 5795 5793 5792 5790 5788 5786 5784 5783 5781
5867 5865 5864 5862 5860 5857 5855 5853 5850 5848 5845 5843 5841 5839 5836 5834 5832 5829 5827 5824 5822 5820 5817 5815 5813 5810 5808 5806 5803 5801 5799 5796 5794 5792 5789 5787 5785 5783 5781 5779 5778 5776 5774
5863 5861 5859 5857 5854 5852 5850 5847 5845 5842 5840 5838 5835 5833 5831 5828 5826 5823 5821 5818 5816 5813 5811 5809 5806 5804 5802 5799 5797 5794 5792 5789 5787 5785 5782 5780 5778 5776 5774 5772 5770 5769 5767
5857 5856 5853 5851 5849 5847 5844 5842 5839 5837 5835 5832 5830 5827 5825 5822 5820 5817 5815 5812 5809 5807 5804 5802 5799 5797 5794 5792 5789 5787 5785 5783 5780 5778 5776 5774 5772 5770 5767 5765 5763 5762 5760
5852 5849 5847 5845 5843 5841 5838 5835 5833 5830 5828 5826 5824 5821 5818 5816 5813 5810 5808 5805 5803 5800 5797 5794 5791 5789 5786 5783 5781 5779 5777 5775 5773 5771 5768 5766 5764 5762 5760 5758 5756 5754 5752
5846 5843 5841 5839 5836 5834 5831 5828 5826 5823 5821 5819 5817 5814 5811 5809 5806 5803 5800 5798 5795 5792 5789 5786 5783 5781 5778 5775 5773 5770 5769 5767 5765 5763 5761 5758 5756 5753 5751 5750 5747 5745 5744